| time (UTC) | temp F | wind direction | speed MPH | gust MPH | rain 1hr in | rain 24hr in | rain mn in | humidity % | barometer mb |
| 20260504140951 | 66 | 178 | 2.0 | 6.0 | 0.00 | 0.00 | 0.00 | 63 | 1016.0 |
| 20260504140448 | 65 | 228 | 2.0 | 6.0 | 0.00 | 0.00 | 0.00 | 64 | 1016.0 |
| 20260504130439 | 62 | 263 | 1.0 | 4.0 | 0.00 | 0.00 | 0.00 | 72 | 1016.2 |
| 20260504110404 | 46 | 302 | 1.0 | 2.0 | 0.00 | 0.00 | 0.00 | 98 | 1016.5 |
| 20260504100334 | 43 | 333 | 2.0 | 2.0 | 0.00 | 0.00 | 0.00 | 97 | 1016.4 |
| 20260504081800 | 43 | 323 | 1.0 | 2.0 | 0.00 | 0.00 | 0.00 | 94 | 1016.4 |
| 20260504081300 | 43 | 0 | 1.0 | 2.0 | 0.00 | 0.00 | 0.00 | 94 | 1016.4 |
| 20260504080807 | 43 | 0 | 1.0 | 2.0 | 0.00 | 0.00 | 0.00 | 93 | 1016.3 |
| 20260504080522 | 44 | 291 | 1.0 | 2.0 | 0.00 | 0.00 | 0.00 | 93 | 1016.4 |
| 20260504080404 | 44 | 291 | 1.0 | 2.0 | 0.00 | 0.00 | 0.00 | 93 | 1016.4 |
| 20260504070256 | 46 | 318 | 1.0 | 2.0 | 0.00 | 0.00 | 0.00 | 87 | 1016.4 |
| 20260504050748 | 43 | 4 | 1.0 | 2.0 | 0.00 | 0.00 | 0.00 | 96 | 1016.7 |
| 20260504050248 | 43 | 0 | 1.0 | 2.0 | 0.00 | 0.00 | 0.00 | 96 | 1016.7 |
| 20260504045749 | 43 | 354 | 1.0 | 2.0 | 0.00 | 0.00 | 0.00 | 96 | 1016.7 |
| 20260504045249 | 43 | 343 | 1.0 | 2.0 | 0.00 | 0.00 | 0.00 | 96 | 1016.7 |
| 20260504045005 | 44 | 338 | 1.0 | 2.0 | 0.00 | 0.00 | 0.00 | 96 | 1016.7 |
| 20260504044850 | 44 | 338 | 1.0 | 2.0 | 0.00 | 0.00 | 0.00 | 96 | 1016.7 |
| 20260504044246 | 44 | 302 | 0.0 | 2.0 | 0.00 | 0.00 | 0.00 | 95 | 1016.7 |
| 20260504044004 | 44 | 328 | 1.0 | 2.0 | 0.00 | 0.00 | 0.00 | 95 | 1016.7 |
| 20260504043850 | 44 | 328 | 1.0 | 2.0 | 0.00 | 0.00 | 0.00 | 95 | 1016.7 |
| 20260504043243 | 44 | 332 | 1.0 | 2.0 | 0.00 | 0.00 | 0.00 | 95 | 1016.7 |
| 20260504042743 | 44 | 309 | 1.0 | 2.0 | 0.00 | 0.00 | 0.00 | 95 | 1016.8 |
| 20260504042243 | 44 | 328 | 1.0 | 2.0 | 0.00 | 0.00 | 0.00 | 95 | 1016.8 |
| 20260504041743 | 44 | 331 | 1.0 | 2.0 | 0.00 | 0.00 | 0.00 | 95 | 1016.8 |
| 20260504041243 | 44 | 310 | 1.0 | 2.0 | 0.00 | 0.00 | 0.00 | 95 | 1016.9 |
| 20260504040743 | 44 | 316 | 1.0 | 2.0 | 0.00 | 0.00 | 0.00 | 94 | 1016.7 |
| 20260504040243 | 44 | 345 | 1.0 | 2.0 | 0.00 | 0.00 | 0.00 | 94 | 1016.7 |
| 20260504040010 | 44 | 314 | 1.0 | 2.0 | 0.00 | 0.00 | 0.00 | 94 | 1016.7 |
| 20260504035848 | 44 | 314 | 1.0 | 2.0 | 0.00 | 0.00 | 0.00 | 94 | 1016.7 |
| 20260504035243 | 45 | 330 | 1.0 | 2.0 | 0.00 | 0.00 | 0.00 | 94 | 1016.7 |
| 20260504034740 | 45 | 327 | 1.0 | 2.0 | 0.00 | 0.00 | 0.00 | 94 | 1016.7 |
| 20260504034240 | 45 | 336 | 1.0 | 2.0 | 0.00 | 0.00 | 0.00 | 94 | 1016.6 |
| 20260504033741 | 45 | 331 | 1.0 | 1.0 | 0.00 | 0.00 | 0.00 | 94 | 1016.5 |
| 20260504033241 | 45 | 341 | 1.0 | 2.0 | 0.00 | 0.00 | 0.00 | 93 | 1016.5 |
| 20260504032741 | 46 | 332 | 1.0 | 2.0 | 0.00 | 0.00 | 0.00 | 93 | 1016.4 |
| 20260504032241 | 46 | 287 | 1.0 | 2.0 | 0.00 | 0.00 | 0.00 | 94 | 1016.5 |
| 20260504031741 | 46 | 0 | 0.0 | 1.0 | 0.00 | 0.00 | 0.00 | 94 | 1016.5 |
| 20260504031238 | 46 | 334 | 0.0 | 2.0 | 0.00 | 0.00 | 0.00 | 94 | 1016.5 |
| 20260504030737 | 46 | 0 | 1.0 | 2.0 | 0.00 | 0.00 | 0.00 | 93 | 1016.5 |
| 20260504030237 | 46 | 321 | 1.0 | 2.0 | 0.00 | 0.00 | 0.00 | 93 | 1016.6 |
| 20260504025738 | 46 | 339 | 1.0 | 2.0 | 0.00 | 0.00 | 0.00 | 92 | 1016.6 |
| 20260504025236 | 46 | 336 | 1.0 | 2.0 | 0.00 | 0.00 | 0.00 | 92 | 1016.5 |
| 20260504024736 | 46 | 3 | 0.0 | 2.0 | 0.00 | 0.00 | 0.00 | 91 | 1016.5 |
| 20260504024238 | 46 | 0 | 1.0 | 2.0 | 0.00 | 0.00 | 0.00 | 91 | 1016.6 |
| 20260504023737 | 47 | 339 | 1.0 | 2.0 | 0.00 | 0.00 | 0.00 | 90 | 1016.5 |
| 20260504023236 | 47 | 349 | 1.0 | 2.0 | 0.00 | 0.00 | 0.00 | 89 | 1016.6 |
| 20260504022737 | 47 | 315 | 1.0 | 2.0 | 0.00 | 0.00 | 0.00 | 89 | 1016.6 |
| 20260504022237 | 47 | 348 | 1.0 | 3.0 | 0.00 | 0.00 | 0.00 | 88 | 1016.6 |
| 20260504021737 | 47 | 336 | 1.0 | 3.0 | 0.00 | 0.00 | 0.00 | 87 | 1016.6 |
| 20260504021237 | 48 | 335 | 1.0 | 3.0 | 0.00 | 0.00 | 0.00 | 87 | 1016.5 |
| 20260504020737 | 48 | 13 | 1.0 | 2.0 | 0.00 | 0.00 | 0.00 | 85 | 1016.5 |
| 20260504020237 | 48 | 5 | 1.0 | 2.0 | 0.00 | 0.00 | 0.00 | 83 | 1016.5 |
| 20260504015736 | 48 | 338 | 1.0 | 2.0 | 0.00 | 0.00 | 0.00 | 83 | 1016.4 |
| 20260504015233 | 49 | 10 | 1.0 | 2.0 | 0.00 | 0.00 | 0.00 | 81 | 1016.4 |
| 20260504014733 | 49 | 4 | 1.0 | 2.0 | 0.00 | 0.00 | 0.00 | 81 | 1016.3 |
| 20260504014235 | 49 | 347 | 1.0 | 1.0 | 0.00 | 0.00 | 0.00 | 80 | 1016.2 |
| 20260504013733 | 49 | 7 | 1.0 | 2.0 | 0.00 | 0.00 | 0.00 | 78 | 1016.2 |
| 20260504013234 | 50 | 348 | 1.0 | 2.0 | 0.00 | 0.00 | 0.00 | 77 | 1016.2 |
| 20260504012736 | 50 | 1 | 1.0 | 2.0 | 0.00 | 0.00 | 0.00 | 76 | 1016.1 |
| 20260504012731 | 50 | 6 | 1.0 | 2.0 | 0.00 | 0.00 | 0.00 | 76 | 1016.1 |
| 20260504012236 | 51 | 14 | 1.0 | 2.0 | 0.00 | 0.00 | 0.00 | 76 | 1016.0 |
| 20260504012231 | 51 | 3 | 1.0 | 2.0 | 0.00 | 0.00 | 0.00 | 76 | 1016.0 |
| 20260504011730 | 51 | 352 | 1.0 | 2.0 | 0.00 | 0.00 | 0.00 | 76 | 1016.0 |
| 20260504011236 | 51 | 349 | 1.0 | 2.0 | 0.00 | 0.00 | 0.00 | 75 | 1015.9 |
| 20260504011231 | 51 | 335 | 1.0 | 2.0 | 0.00 | 0.00 | 0.00 | 75 | 1015.9 |
| 20260504010736 | 51 | 344 | 1.0 | 2.0 | 0.00 | 0.00 | 0.00 | 73 | 1015.9 |
| 20260504010732 | 51 | 339 | 1.0 | 2.0 | 0.00 | 0.00 | 0.00 | 73 | 1015.9 |
| 20260504010500 | 52 | 330 | 1.0 | 2.0 | 0.00 | 0.00 | 0.00 | 70 | 1015.8 |
| 20260504010336 | 52 | 320 | 1.0 | 2.0 | 0.00 | 0.00 | 0.00 | 70 | 1015.8 |
| 20260504005733 | 52 | 323 | 1.0 | 2.0 | 0.00 | 0.00 | 0.00 | 66 | 1015.7 |
| 20260504005729 | 52 | 333 | 1.0 | 2.0 | 0.00 | 0.00 | 0.00 | 66 | 1015.7 |
| 20260504005446 | 52 | 323 | 1.0 | 2.0 | 0.00 | 0.00 | 0.00 | 64 | 1015.6 |
| 20260504005333 | 52 | 323 | 1.0 | 2.0 | 0.00 | 0.00 | 0.00 | 64 | 1015.6 |
| 20260504004731 | 53 | 314 | 1.0 | 2.0 | 0.00 | 0.00 | 0.00 | 63 | 1015.5 |
| 20260504004725 | 53 | 317 | 1.0 | 2.0 | 0.00 | 0.00 | 0.00 | 63 | 1015.5 |
| 20260504004231 | 53 | 319 | 1.0 | 2.0 | 0.00 | 0.00 | 0.00 | 61 | 1015.5 |
| 20260504004227 | 53 | 318 | 1.0 | 2.0 | 0.00 | 0.00 | 0.00 | 61 | 1015.5 |
| 20260504003733 | 54 | 297 | 1.0 | 2.0 | 0.00 | 0.00 | 0.00 | 58 | 1015.5 |
| 20260504003728 | 54 | 289 | 1.0 | 2.0 | 0.00 | 0.00 | 0.00 | 58 | 1015.5 |
| 20260504003233 | 54 | 313 | 1.0 | 2.0 | 0.00 | 0.00 | 0.00 | 57 | 1015.4 |
| 20260504003228 | 54 | 306 | 1.0 | 2.0 | 0.00 | 0.00 | 0.00 | 57 | 1015.4 |
| 20260504003215 | 55 | 334 | 1.0 | 2.0 | 0.00 | 0.00 | 0.00 | 53 | 1015.4 |
| 20260504002833 | 55 | 324 | 1.0 | 2.0 | 0.00 | 0.00 | 0.00 | 53 | 1015.4 |
| 20260504002232 | 55 | 321 | 1.0 | 2.0 | 0.00 | 0.00 | 0.00 | 53 | 1015.3 |
| 20260504002226 | 55 | 314 | 1.0 | 2.0 | 0.00 | 0.00 | 0.00 | 53 | 1015.3 |
| 20260504001946 | 56 | 333 | 1.0 | 2.0 | 0.00 | 0.00 | 0.00 | 52 | 1015.2 |
| 20260504001833 | 56 | 321 | 1.0 | 2.0 | 0.00 | 0.00 | 0.00 | 52 | 1015.2 |
| 20260504001233 | 56 | 321 | 1.0 | 2.0 | 0.00 | 0.00 | 0.00 | 52 | 1015.2 |
| 20260504001228 | 56 | 315 | 1.0 | 2.0 | 0.00 | 0.00 | 0.00 | 52 | 1015.2 |
| 20260504000732 | 56 | 255 | 1.0 | 2.0 | 0.00 | 0.00 | 0.00 | 50 | 1015.1 |
| 20260504000727 | 56 | 0 | 1.0 | 2.0 | 0.00 | 0.00 | 0.00 | 50 | 1015.1 |
| 20260504000226 | 57 | 329 | 1.0 | 2.0 | 0.00 | 0.00 | 0.00 | 50 | 1015.1 |
| 20260503235730 | 58 | 261 | 1.0 | 2.0 | 0.00 | 0.00 | 0.00 | 49 | 1015.0 |
| 20260503235724 | 58 | 240 | 1.0 | 2.0 | 0.00 | 0.00 | 0.00 | 49 | 1015.0 |
| 20260503235227 | 58 | 318 | 1.0 | 2.0 | 0.00 | 0.00 | 0.00 | 49 | 1015.1 |
| 20260503235222 | 58 | 295 | 1.0 | 2.0 | 0.00 | 0.00 | 0.00 | 49 | 1015.1 |
| 20260503234725 | 58 | 130 | 1.0 | 2.0 | 0.00 | 0.00 | 0.00 | 47 | 1015.1 |
| 20260503234717 | 58 | 323 | 1.0 | 2.0 | 0.00 | 0.00 | 0.00 | 47 | 1015.1 |
| 20260503234225 | 59 | 276 | 2.0 | 3.0 | 0.00 | 0.00 | 0.00 | 47 | 1015.1 |
| 20260503234218 | 59 | 296 | 2.0 | 3.0 | 0.00 | 0.00 | 0.00 | 47 | 1015.1 |
| 20260503233724 | 59 | 258 | 2.0 | 3.0 | 0.00 | 0.00 | 0.00 | 45 | 1015.1 |
| 20260503233718 | 59 | 269 | 2.0 | 3.0 | 0.00 | 0.00 | 0.00 | 45 | 1015.1 |
| 20260503233224 | 60 | 287 | 2.0 | 3.0 | 0.00 | 0.00 | 0.00 | 44 | 1015.0 |
| 20260503233218 | 60 | 299 | 2.0 | 3.0 | 0.00 | 0.00 | 0.00 | 44 | 1015.0 |
| 20260503232725 | 60 | 297 | 2.0 | 3.0 | 0.00 | 0.00 | 0.00 | 44 | 1015.1 |
| 20260503232717 | 60 | 298 | 2.0 | 3.0 | 0.00 | 0.00 | 0.00 | 44 | 1015.1 |
| 20260503232223 | 61 | 290 | 1.0 | 2.0 | 0.00 | 0.00 | 0.00 | 43 | 1015.0 |
| 20260503232216 | 61 | 182 | 1.0 | 2.0 | 0.00 | 0.00 | 0.00 | 43 | 1015.0 |
| 20260503231726 | 61 | 257 | 1.0 | 2.0 | 0.00 | 0.00 | 0.00 | 43 | 1015.1 |
| 20260503231718 | 61 | 254 | 1.0 | 2.0 | 0.00 | 0.00 | 0.00 | 43 | 1015.1 |
| 20260503231439 | 62 | 0 | 1.0 | 4.0 | 0.00 | 0.00 | 0.00 | 42 | 1015.1 |
| 20260503231323 | 62 | 111 | 1.0 | 4.0 | 0.00 | 0.00 | 0.00 | 42 | 1015.1 |
| 20260503230725 | 62 | 267 | 1.0 | 4.0 | 0.00 | 0.00 | 0.00 | 40 | 1015.0 |
| 20260503230718 | 62 | 258 | 1.0 | 4.0 | 0.00 | 0.00 | 0.00 | 40 | 1015.0 |
| 20260503230226 | 62 | 41 | 1.0 | 4.0 | 0.00 | 0.00 | 0.00 | 38 | 1014.9 |
| 20260503230216 | 62 | 260 | 1.0 | 4.0 | 0.00 | 0.00 | 0.00 | 38 | 1014.9 |
| 20260503225725 | 62 | 273 | 1.0 | 4.0 | 0.00 | 0.00 | 0.00 | 39 | 1014.9 |
| 20260503225712 | 62 | 271 | 1.0 | 4.0 | 0.00 | 0.00 | 0.00 | 39 | 1014.9 |
| 20260503225222 | 63 | 260 | 1.0 | 5.0 | 0.00 | 0.00 | 0.00 | 39 | 1015.0 |
| 20260503225212 | 63 | 21 | 1.0 | 5.0 | 0.00 | 0.00 | 0.00 | 39 | 1015.0 |
| 20260503224722 | 63 | 169 | 2.0 | 5.0 | 0.00 | 0.00 | 0.00 | 37 | 1014.9 |
| 20260503224712 | 63 | 260 | 1.0 | 5.0 | 0.00 | 0.00 | 0.00 | 37 | 1014.9 |
| 20260503224222 | 63 | 245 | 2.0 | 6.0 | 0.00 | 0.00 | 0.00 | 37 | 1014.9 |
| 20260503224212 | 63 | 259 | 2.0 | 6.0 | 0.00 | 0.00 | 0.00 | 37 | 1014.9 |
| 20260503223722 | 64 | 44 | 2.0 | 6.0 | 0.00 | 0.00 | 0.00 | 36 | 1014.9 |
| 20260503223713 | 64 | 49 | 2.0 | 6.0 | 0.00 | 0.00 | 0.00 | 36 | 1014.9 |
| 20260503223222 | 64 | 246 | 2.0 | 5.0 | 0.00 | 0.00 | 0.00 | 35 | 1014.9 |
| 20260503223212 | 64 | 257 | 2.0 | 5.0 | 0.00 | 0.00 | 0.00 | 35 | 1014.9 |
| 20260503222722 | 64 | 224 | 2.0 | 5.0 | 0.00 | 0.00 | 0.00 | 37 | 1014.9 |
| 20260503222712 | 64 | 219 | 2.0 | 5.0 | 0.00 | 0.00 | 0.00 | 37 | 1014.9 |
| 20260503222223 | 64 | 275 | 2.0 | 6.0 | 0.00 | 0.00 | 0.00 | 35 | 1014.9 |
| 20260503222213 | 64 | 271 | 2.0 | 6.0 | 0.00 | 0.00 | 0.00 | 35 | 1014.9 |
| 20260503221721 | 64 | 48 | 2.0 | 6.0 | 0.00 | 0.00 | 0.00 | 34 | 1014.9 |
| 20260503221713 | 64 | 0 | 2.0 | 6.0 | 0.00 | 0.00 | 0.00 | 34 | 1014.9 |
| 20260503221223 | 65 | 202 | 2.0 | 6.0 | 0.00 | 0.00 | 0.00 | 35 | 1014.8 |
| 20260503221214 | 65 | 219 | 2.0 | 5.0 | 0.00 | 0.00 | 0.00 | 35 | 1014.8 |
| 20260503220723 | 65 | 185 | 2.0 | 5.0 | 0.00 | 0.00 | 0.00 | 37 | 1014.8 |
| 20260503220713 | 65 | 225 | 2.0 | 5.0 | 0.00 | 0.00 | 0.00 | 37 | 1014.8 |
| 20260503220435 | 66 | 250 | 1.0 | 4.0 | 0.00 | 0.00 | 0.00 | 33 | 1014.8 |
| 20260503220319 | 66 | 256 | 1.0 | 4.0 | 0.00 | 0.00 | 0.00 | 33 | 1014.8 |
| 20260503215723 | 66 | 248 | 1.0 | 4.0 | 0.00 | 0.00 | 0.00 | 36 | 1014.8 |
| 20260503215711 | 66 | 241 | 1.0 | 4.0 | 0.00 | 0.00 | 0.00 | 36 | 1014.8 |
| 20260503215221 | 66 | 33 | 1.0 | 4.0 | 0.00 | 0.00 | 0.00 | 36 | 1014.8 |
| 20260503215212 | 66 | 54 | 1.0 | 4.0 | 0.00 | 0.00 | 0.00 | 36 | 1014.8 |
| 20260503214721 | 66 | 286 | 1.0 | 6.0 | 0.00 | 0.00 | 0.00 | 36 | 1014.7 |
| 20260503214711 | 66 | 3 | 1.0 | 6.0 | 0.00 | 0.00 | 0.00 | 36 | 1014.7 |
| 20260503214220 | 67 | 0 | 1.0 | 6.0 | 0.00 | 0.00 | 0.00 | 35 | 1014.7 |
| 20260503214210 | 67 | 71 | 1.0 | 6.0 | 0.00 | 0.00 | 0.00 | 35 | 1014.7 |
| 20260503213717 | 67 | 185 | 1.0 | 4.0 | 0.00 | 0.00 | 0.00 | 34 | 1014.7 |
| 20260503213708 | 67 | 205 | 1.0 | 4.0 | 0.00 | 0.00 | 0.00 | 34 | 1014.7 |
| 20260503213214 | 67 | 129 | 1.0 | 4.0 | 0.00 | 0.00 | 0.00 | 34 | 1014.8 |
| 20260503213207 | 67 | 310 | 1.0 | 4.0 | 0.00 | 0.00 | 0.00 | 34 | 1014.8 |
| 20260503212713 | 67 | 337 | 1.0 | 5.0 | 0.00 | 0.00 | 0.00 | 33 | 1014.9 |
| 20260503212708 | 67 | 335 | 1.0 | 5.0 | 0.00 | 0.00 | 0.00 | 33 | 1014.9 |
| 20260503212213 | 68 | 129 | 1.0 | 5.0 | 0.00 | 0.00 | 0.00 | 33 | 1014.8 |
| 20260503212207 | 68 | 166 | 1.0 | 5.0 | 0.00 | 0.00 | 0.00 | 33 | 1014.8 |
| 20260503211714 | 68 | 66 | 1.0 | 4.0 | 0.00 | 0.00 | 0.00 | 38 | 1014.9 |
| 20260503211707 | 68 | 83 | 1.0 | 4.0 | 0.00 | 0.00 | 0.00 | 38 | 1014.9 |
| 20260503211214 | 68 | 60 | 2.0 | 8.0 | 0.00 | 0.00 | 0.00 | 35 | 1014.9 |
| 20260503211208 | 68 | 84 | 2.0 | 8.0 | 0.00 | 0.00 | 0.00 | 35 | 1014.9 |
| 20260503210716 | 68 | 266 | 2.0 | 8.0 | 0.00 | 0.00 | 0.00 | 33 | 1014.9 |
| 20260503210707 | 68 | 285 | 2.0 | 8.0 | 0.00 | 0.00 | 0.00 | 33 | 1014.9 |
| 20260503210213 | 68 | 24 | 1.0 | 4.0 | 0.00 | 0.00 | 0.00 | 32 | 1014.9 |
| 20260503210204 | 68 | 2 | 1.0 | 4.0 | 0.00 | 0.00 | 0.00 | 32 | 1014.9 |
| 20260503205713 | 67 | 293 | 2.0 | 8.0 | 0.00 | 0.01 | 0.00 | 30 | 1014.9 |
| 20260503205703 | 67 | 299 | 2.0 | 8.0 | 0.00 | 0.01 | 0.00 | 30 | 1014.9 |
| 20260503205209 | 68 | 21 | 1.0 | 8.0 | 0.00 | 0.01 | 0.00 | 31 | 1014.9 |
| 20260503205200 | 68 | 60 | 1.0 | 8.0 | 0.00 | 0.01 | 0.00 | 31 | 1014.9 |
| 20260503204710 | 68 | 280 | 1.0 | 6.0 | 0.00 | 0.01 | 0.00 | 31 | 1014.9 |
| 20260503204700 | 68 | 322 | 1.0 | 6.0 | 0.00 | 0.01 | 0.00 | 31 | 1014.9 |
| 20260503204206 | 68 | 320 | 2.0 | 7.0 | 0.00 | 0.01 | 0.00 | 31 | 1015.0 |
| 20260503204201 | 68 | 331 | 2.0 | 7.0 | 0.00 | 0.01 | 0.00 | 31 | 1015.0 |
| 20260503203925 | 68 | 292 | 2.0 | 7.0 | 0.00 | 0.01 | 0.00 | 32 | 1015.0 |
| 20260503203806 | 68 | 135 | 2.0 | 7.0 | 0.00 | 0.01 | 0.00 | 32 | 1015.0 |
| 20260503203207 | 68 | 268 | 2.0 | 6.0 | 0.00 | 0.01 | 0.00 | 31 | 1015.0 |
| 20260503203157 | 68 | 252 | 2.0 | 6.0 | 0.00 | 0.02 | 0.00 | 31 | 1015.0 |
| 20260503202917 | 68 | 269 | 2.0 | 6.0 | 0.00 | 0.02 | 0.00 | 33 | 1015.0 |
| 20260503202804 | 68 | 234 | 2.0 | 6.0 | 0.00 | 0.02 | 0.00 | 33 | 1015.0 |
| 20260503202205 | 68 | 156 | 1.0 | 5.0 | 0.00 | 0.02 | 0.00 | 33 | 1015.1 |
| 20260503202157 | 68 | 249 | 1.0 | 5.0 | 0.00 | 0.02 | 0.00 | 33 | 1015.1 |
| 20260503201708 | 68 | 338 | 2.0 | 7.0 | 0.00 | 0.02 | 0.00 | 31 | 1015.1 |
| 20260503201657 | 68 | 0 | 2.0 | 7.0 | 0.00 | 0.02 | 0.00 | 31 | 1015.1 |
| 20260503201207 | 68 | 301 | 2.0 | 7.0 | 0.00 | 0.02 | 0.00 | 31 | 1015.2 |
| 20260503201157 | 68 | 321 | 2.0 | 7.0 | 0.00 | 0.02 | 0.00 | 31 | 1015.2 |
| 20260503200703 | 68 | 332 | 2.0 | 6.0 | 0.00 | 0.02 | 0.00 | 33 | 1015.2 |
| 20260503200657 | 68 | 193 | 2.0 | 6.0 | 0.00 | 0.02 | 0.00 | 33 | 1015.2 |
| 20260503200203 | 67 | 89 | 2.0 | 5.0 | 0.00 | 0.02 | 0.00 | 31 | 1015.3 |
| 20260503200158 | 67 | 70 | 2.0 | 5.0 | 0.00 | 0.02 | 0.00 | 31 | 1015.3 |
| 20260503195706 | 67 | 287 | 2.0 | 5.0 | 0.00 | 0.02 | 0.00 | 30 | 1015.4 |
| 20260503195655 | 67 | 58 | 2.0 | 5.0 | 0.00 | 0.02 | 0.00 | 30 | 1015.4 |
| 20260503195200 | 68 | 302 | 2.0 | 6.0 | 0.00 | 0.02 | 0.00 | 32 | 1015.5 |
| 20260503195151 | 68 | 321 | 2.0 | 6.0 | 0.00 | 0.02 | 0.00 | 32 | 1015.5 |
| 20260503194703 | 68 | 282 | 2.0 | 6.0 | 0.00 | 0.02 | 0.00 | 31 | 1015.5 |
| 20260503194655 | 68 | 272 | 2.0 | 6.0 | 0.00 | 0.02 | 0.00 | 31 | 1015.5 |
| 20260503194200 | 68 | 75 | 2.0 | 6.0 | 0.00 | 0.02 | 0.00 | 31 | 1015.6 |
| 20260503194156 | 68 | 326 | 2.0 | 6.0 | 0.00 | 0.02 | 0.00 | 31 | 1015.6 |
| 20260503193659 | 68 | 144 | 2.0 | 6.0 | 0.00 | 0.02 | 0.00 | 33 | 1015.7 |
| 20260503193651 | 68 | 329 | 2.0 | 6.0 | 0.00 | 0.02 | 0.00 | 33 | 1015.7 |
| 20260503193155 | 68 | 247 | 2.0 | 6.0 | 0.00 | 0.02 | 0.00 | 30 | 1015.7 |
| 20260503193151 | 68 | 222 | 2.0 | 6.0 | 0.00 | 0.02 | 0.00 | 30 | 1015.7 |
| 20260503192657 | 68 | 16 | 1.0 | 4.0 | 0.00 | 0.02 | 0.00 | 31 | 1015.9 |
| 20260503192651 | 68 | 172 | 1.0 | 4.0 | 0.00 | 0.02 | 0.00 | 31 | 1015.9 |
| 20260503192423 | 67 | 309 | 1.0 | 3.0 | 0.00 | 0.02 | 0.00 | 32 | 1015.9 |
| 20260503192255 | 67 | 0 | 1.0 | 3.0 | 0.00 | 0.02 | 0.00 | 32 | 1015.9 |
| 20260503191657 | 66 | 255 | 2.0 | 9.0 | 0.00 | 0.02 | 0.00 | 32 | 1015.9 |
| 20260503191651 | 66 | 272 | 2.0 | 9.0 | 0.00 | 0.02 | 0.00 | 32 | 1015.9 |
| 20260503191631 | 66 | 50 | 2.0 | 9.0 | 0.00 | 0.03 | 0.00 | 29 | 1016.0 |
| 20260503191256 | 66 | 80 | 2.0 | 9.0 | 0.00 | 0.03 | 0.00 | 29 | 1016.0 |
| 20260503190657 | 66 | 294 | 2.0 | 8.0 | 0.00 | 0.03 | 0.00 | 34 | 1016.1 |
| 20260503190650 | 66 | 13 | 2.0 | 8.0 | 0.00 | 0.03 | 0.00 | 34 | 1016.1 |
| 20260503190157 | 66 | 2 | 2.0 | 8.0 | 0.00 | 0.03 | 0.00 | 32 | 1016.0 |
| 20260503190148 | 66 | 112 | 2.0 | 8.0 | 0.00 | 0.03 | 0.00 | 32 | 1016.0 |
| 20260503185653 | 66 | 195 | 2.0 | 8.0 | 0.00 | 0.03 | 0.00 | 31 | 1016.1 |
| 20260503185643 | 66 | 225 | 2.0 | 8.0 | 0.00 | 0.03 | 0.00 | 33 | 1016.2 |
| 20260503185155 | 66 | 316 | 2.0 | 7.0 | 0.00 | 0.03 | 0.00 | 32 | 1016.2 |
| 20260503185145 | 66 | 284 | 2.0 | 7.0 | 0.00 | 0.03 | 0.00 | 31 | 1016.2 |
| 20260503184653 | 66 | 130 | 2.0 | 6.0 | 0.00 | 0.03 | 0.00 | 33 | 1016.2 |
| 20260503184643 | 66 | 170 | 2.0 | 6.0 | 0.00 | 0.03 | 0.00 | 33 | 1016.2 |
| 20260503184153 | 66 | 184 | 2.0 | 6.0 | 0.00 | 0.04 | 0.00 | 32 | 1016.2 |
| 20260503184144 | 66 | 226 | 2.0 | 6.0 | 0.00 | 0.04 | 0.00 | 30 | 1016.3 |
| 20260503183654 | 66 | 257 | 2.0 | 7.0 | 0.00 | 0.04 | 0.00 | 34 | 1016.2 |
| 20260503183645 | 65 | 198 | 2.0 | 7.0 | 0.00 | 0.04 | 0.00 | 32 | 1016.2 |
| 20260503183154 | 65 | 107 | 2.0 | 7.0 | 0.00 | 0.04 | 0.00 | 34 | 1016.2 |
| 20260503183144 | 65 | 0 | 2.0 | 7.0 | 0.00 | 0.04 | 0.00 | 34 | 1016.1 |
| 20260503182911 | 65 | 181 | 3.0 | 8.0 | 0.00 | 0.04 | 0.00 | 33 | 1016.3 |
| 20260503182751 | 65 | 210 | 3.0 | 8.0 | 0.00 | 0.04 | 0.00 | 34 | 1016.3 |
| 20260503182153 | 65 | 111 | 3.0 | 8.0 | 0.00 | 0.04 | 0.00 | 33 | 1016.4 |
| 20260503182145 | 65 | 245 | 3.0 | 8.0 | 0.00 | 0.04 | 0.00 | 34 | 1016.4 |
| 20260503181654 | 66 | 28 | 2.0 | 6.0 | 0.00 | 0.04 | 0.00 | 34 | 1016.4 |
| 20260503181644 | 65 | 186 | 2.0 | 6.0 | 0.00 | 0.04 | 0.00 | 35 | 1016.4 |
| 20260503181153 | 65 | 230 | 2.0 | 9.0 | 0.00 | 0.05 | 0.00 | 35 | 1016.5 |
| 20260503181144 | 65 | 253 | 2.0 | 9.0 | 0.00 | 0.05 | 0.00 | 34 | 1016.5 |
| 20260503180652 | 65 | 130 | 2.0 | 10.0 | 0.00 | 0.05 | 0.00 | 38 | 1016.5 |
| 20260503180645 | 65 | 53 | 2.0 | 10.0 | 0.00 | 0.05 | 0.00 | 36 | 1016.6 |
| 20260503180152 | 64 | 55 | 2.0 | 10.0 | 0.00 | 0.05 | 0.00 | 34 | 1016.6 |
| 20260503180143 | 64 | 62 | 2.0 | 10.0 | 0.00 | 0.05 | 0.00 | 36 | 1016.6 |
| 20260503175651 | 65 | 345 | 2.0 | 7.0 | 0.00 | 0.05 | 0.00 | 35 | 1016.7 |
| 20260503175641 | 65 | 315 | 2.0 | 7.0 | 0.00 | 0.05 | 0.00 | 35 | 1016.6 |
| 20260503175149 | 65 | 190 | 2.0 | 7.0 | 0.00 | 0.06 | 0.00 | 35 | 1016.7 |
| 20260503175141 | 65 | 154 | 2.0 | 7.0 | 0.00 | 0.06 | 0.00 | 36 | 1016.8 |
| 20260503174648 | 65 | 282 | 2.0 | 6.0 | 0.00 | 0.06 | 0.00 | 32 | 1016.8 |
| 20260503174642 | 65 | 263 | 2.0 | 6.0 | 0.00 | 0.06 | 0.00 | 34 | 1016.8 |
| 20260503174146 | 64 | 346 | 3.0 | 6.0 | 0.00 | 0.06 | 0.00 | 34 | 1016.8 |
| 20260503174141 | 64 | 331 | 2.0 | 6.0 | 0.00 | 0.06 | 0.00 | 36 | 1016.7 |
| 20260503173647 | 64 | 126 | 2.0 | 8.0 | 0.00 | 0.06 | 0.00 | 34 | 1016.8 |
| 20260503173641 | 64 | 159 | 2.0 | 8.0 | 0.00 | 0.06 | 0.00 | 37 | 1016.8 |
| 20260503173145 | 65 | 23 | 2.0 | 8.0 | 0.00 | 0.06 | 0.00 | 36 | 1016.9 |
| 20260503173141 | 65 | 338 | 2.0 | 8.0 | 0.00 | 0.06 | 0.00 | 34 | 1016.8 |
| 20260503172648 | 64 | 353 | 2.0 | 6.0 | 0.00 | 0.07 | 0.00 | 40 | 1016.8 |
| 20260503172641 | 64 | 62 | 2.0 | 6.0 | 0.00 | 0.07 | 0.00 | 40 | 1016.8 |
| 20260503172142 | 64 | 222 | 2.0 | 6.0 | 0.00 | 0.07 | 0.00 | 37 | 1016.9 |
| 20260503171649 | 64 | 55 | 2.0 | 6.0 | 0.00 | 0.07 | 0.00 | 35 | 1016.9 |
| 20260503171643 | 64 | 102 | 2.0 | 6.0 | 0.00 | 0.07 | 0.00 | 35 | 1016.9 |
| 20260503171409 | 64 | 238 | 2.0 | 6.0 | 0.00 | 0.07 | 0.00 | 36 | 1017.0 |
| 20260503171248 | 64 | 262 | 2.0 | 6.0 | 0.00 | 0.07 | 0.00 | 36 | 1017.0 |
| 20260503170647 | 63 | 351 | 2.0 | 6.0 | 0.00 | 0.07 | 0.00 | 40 | 1016.9 |
| 20260503170640 | 63 | 282 | 2.0 | 6.0 | 0.00 | 0.07 | 0.00 | 40 | 1016.9 |
| 20260503170145 | 63 | 45 | 2.0 | 6.0 | 0.00 | 0.07 | 0.00 | 37 | 1017.0 |
| 20260503170140 | 63 | 32 | 2.0 | 6.0 | 0.00 | 0.07 | 0.00 | 37 | 1017.0 |
| 20260503150640 | 60 | 16 | 3.0 | 5.0 | 0.00 | 0.18 | 0.00 | 49 | 1018.0 |
| 20260503150636 | 60 | 319 | 3.0 | 5.0 | 0.00 | 0.18 | 0.00 | 49 | 1018.0 |